Location: *
(45.9500°N, 9.0833°E)
Time: 20:26:24
(UTC+00:00)

Gbstr 26 Del rocket - Pass Details

Date: 03 March 2021
Orbit: 492 x 1263 km, 51.8° (Epoch: 20 April)

Event Time Altitude Azimuth Distance (km) Brightness Sun altitude
Rises 19:54:32 0° 292° (WNW) 2,942 7.8 -28.4°
Reaches altitude 10° 19:56:42 10° 297° (WNW) 2,129 6.7 -28.7°
Enters shadow 20:01:00 50° 354° (N) 992 4.1 -29.4°
